GW6748 Weather Reports


time (UTC)temp
C
wind
direction
speed
KPH
gust
KPH
rain 1hr
cm
rain 24hr
cm
rain mn
cm
humidity
%
barometer
mb
20260504193052 8 321 6.4 12.9 0.00 0.00 0.00 82 1005.0
20260504192544 8 321 8.0 12.9 0.00 0.00 0.00 82 1005.0
20260504192046 7 321 6.4 12.9 0.00 0.00 0.00 83 1004.9
20260504191601 7 321 6.4 9.7 0.00 0.00 0.00 83 1004.9
20260504191043 8 321 8.0 12.9 0.00 0.00 0.00 82 1005.1
20260504190544 8 321 4.8 12.9 0.00 0.00 0.00 82 1005.2
20260504190113 7 321 9.7 12.9 0.00 0.00 0.00 83 1005.1
20260504185547 7 321 8.0 12.9 0.00 0.00 0.00 83 1005.2
20260504185043 7 321 8.0 16.1 0.00 0.00 0.00 83 1005.4
20260504184611 7 321 8.0 16.1 0.00 0.00 0.00 83 1005.3
20260504184043 7 321 11.3 16.1 0.00 0.00 0.00 82 1005.2
20260504183542 7 321 8.0 17.7 0.00 0.00 0.00 84 1005.3
20260504183053 7 321 9.7 20.9 0.00 0.00 0.00 83 1005.6
20260504182543 7 321 11.3 20.9 0.00 0.00 0.00 83 1005.5
20260504182044 7 321 8.0 19.3 0.00 0.00 0.00 84 1005.5
20260504181549 7 321 9.7 19.3 0.00 0.00 0.00 84 1005.7
20260504181044 7 321 6.4 12.9 0.00 0.00 0.00 85 1005.6
20260504180544 7 321 4.8 14.5 0.00 0.00 0.00 87 1005.6
20260504180055 7 321 9.7 14.5 0.00 0.00 0.00 86 1005.6
20260504175544 7 321 8.0 14.5 0.00 0.00 0.00 86 1005.6
20260504175043 7 321 11.3 14.5 0.00 0.00 0.00 86 1005.5
20260504174549 7 321 11.3 17.7 0.00 0.00 0.00 86 1005.5
20260504174043 7 321 12.9 17.7 0.00 0.00 0.00 85 1005.5
20260504173543 7 321 12.9 19.3 0.00 0.00 0.00 85 1005.5
20260504173049 7 321 11.3 19.3 0.00 0.00 0.00 84 1005.5
20260504172543 7 321 11.3 16.1 0.00 0.00 0.00 85 1005.6
20260504172043 7 321 11.3 17.7 0.00 0.00 0.00 84 1005.6
20260504171550 7 321 12.9 24.1 0.00 0.00 0.00 83 1005.6
20260504171042 7 321 14.5 24.1 0.00 0.00 0.00 83 1005.5
20260504170544 7 320 14.5 24.1 0.00 0.00 0.00 82 1005.4
20260504151041 7 317 14.5 17.7 0.00 0.00 0.00 82 1004.8
20260504150543 7 317 9.7 14.5 0.00 0.00 0.00 82 1004.8
20260504141043 6 315 9.7 14.5 0.00 0.00 0.00 82 1004.8
20260504140543 6 315 8.0 11.3 0.00 0.00 0.00 82 1004.8
20260504140106 6 314 8.0 9.7 0.00 0.00 0.00 82 1004.8
20260504130544 5 314 1.6 4.8 0.00 0.00 0.00 79 1005.5
20260504120108 3 314 3.2 4.8 0.00 0.00 0.00 78 1006.2
20260504110547 -1 0 0.0 0.0 0.00 0.00 0.00 93 1006.3
20260504100547 -2 0 0.0 0.0 0.00 0.00 0.00 92 1006.2
20260504081555 -2 0 0.0 0.0 0.00 0.00 0.00 91 1006.1
20260504081048 -2 0 0.0 0.0 0.00 0.00 0.00 91 1006.2
20260504080547 -2 0 0.0 0.0 0.00 0.00 0.00 91 1006.2
20260504050541 -2 0 0.0 0.0 0.00 0.00 0.00 89 1006.0
20260504045542 -2 0 0.0 0.0 0.00 0.00 0.00 89 1006.0
20260504045041 -2 0 0.0 0.0 0.00 0.00 0.00 89 1006.0
20260504044552 -2 0 0.0 0.0 0.00 0.00 0.00 88 1006.1
20260504044042 -2 0 0.0 0.0 0.00 0.00 0.00 89 1006.1
20260504043541 -2 0 0.0 0.0 0.00 0.00 0.00 88 1006.1
20260504043051 -2 0 0.0 0.0 0.00 0.00 0.00 88 1006.2
20260504042541 -2 0 0.0 0.0 0.00 0.00 0.00 88 1006.2
20260504042041 -2 0 0.0 0.0 0.00 0.00 0.00 88 1006.2
20260504041552 -2 0 0.0 0.0 0.00 0.00 0.00 88 1006.3
20260504041041 -2 0 0.0 0.0 0.00 0.00 0.00 88 1006.1
20260504040541 -2 0 0.0 0.0 0.00 0.00 0.00 88 1006.2
20260504040057 -2 0 0.0 0.0 0.00 0.00 0.00 88 1006.1
20260504035542 -2 0 0.0 0.0 0.00 0.00 0.00 87 1006.1
20260504035042 -1 0 0.0 0.0 0.00 0.00 0.00 87 1006.1
20260504034552 -1 0 0.0 0.0 0.00 0.00 0.00 87 1006.1
20260504034045 -1 0 0.0 0.0 0.00 0.00 0.00 87 1006.1
20260504033541 -1 0 0.0 0.0 0.00 0.00 0.00 87 1006.0
20260504033057 -1 0 0.0 0.0 0.00 0.00 0.00 87 1005.9
20260504032544 -1 0 0.0 0.0 0.00 0.00 0.00 87 1005.9
20260504032041 -1 0 0.0 0.0 0.00 0.00 0.00 86 1006.1
20260504031602 -1 0 0.0 0.0 0.00 0.00 0.00 86 1006.1
20260504031045 -1 0 0.0 0.0 0.00 0.00 0.00 86 1006.0
20260504030541 -1 0 0.0 0.0 0.00 0.00 0.00 86 1006.0
20260504030053 -1 0 0.0 0.0 0.00 0.00 0.00 85 1005.9
20260504025542 -1 0 0.0 0.0 0.00 0.00 0.00 85 1006.0
20260504025043 -1 0 0.0 0.0 0.00 0.00 0.00 84 1006.0
20260504024600 -1 0 0.0 0.0 0.00 0.00 0.00 84 1006.0
20260504024043 0 0 0.0 0.0 0.00 0.00 0.00 84 1006.1
20260504023547 0 0 0.0 0.0 0.00 0.00 0.00 83 1006.1
20260504023054 0 0 0.0 0.0 0.00 0.00 0.00 83 1006.1
20260504022542 0 0 0.0 0.0 0.00 0.00 0.00 83 1006.1
20260504022042 0 0 0.0 0.0 0.00 0.00 0.00 82 1006.1
20260504021556 0 0 0.0 0.0 0.00 0.00 0.00 82 1006.0
20260504021041 0 0 0.0 0.0 0.00 0.00 0.00 81 1006.1
20260504020541 1 0 0.0 0.0 0.00 0.00 0.00 81 1006.0
20260504020050 1 0 0.0 0.0 0.00 0.00 0.00 80 1006.0
20260504015546 1 0 0.0 0.0 0.00 0.00 0.00 78 1006.1
20260504015046 2 0 0.0 6.4 0.00 0.00 0.00 75 1006.1
20260504014552 3 0 1.6 6.4 0.00 0.00 0.00 71 1006.1
20260504014043 4 314 4.8 6.4 0.00 0.00 0.00 76 1006.2
20260504013545 4 314 4.8 8.0 0.00 0.00 0.00 73 1006.1
20260504013104 4 314 4.8 8.0 0.00 0.00 0.00 72 1006.1
20260504012546 4 314 4.8 8.0 0.00 0.00 0.00 72 1006.1
20260504012045 4 314 4.8 8.0 0.00 0.00 0.00 72 1006.0
20260504011550 4 314 6.4 8.0 0.00 0.00 0.00 73 1005.8
20260504011046 4 314 6.4 6.4 0.00 0.00 0.00 71 1005.8
20260504010542 4 314 4.8 6.4 0.00 0.00 0.00 73 1005.8
20260504010057 4 314 1.6 6.4 0.00 0.00 0.00 73 1005.8
20260504005542 4 314 3.2 6.4 0.00 0.00 0.00 71 1005.8
20260504005042 4 314 4.8 6.4 0.00 0.00 0.00 71 1005.8
20260504004613 4 314 3.2 6.4 0.00 0.00 0.00 69 1005.6
20260504004046 4 314 3.2 6.4 0.00 0.00 0.00 72 1005.5
20260504003545 4 314 3.2 9.7 0.00 0.00 0.00 71 1005.6
20260504003049 4 314 4.8 9.7 0.00 0.00 0.00 68 1005.6
20260504002545 4 314 4.8 9.7 0.00 0.00 0.00 67 1005.5
20260504002048 4 314 4.8 12.9 0.00 0.00 0.00 70 1005.5
20260504001558 4 314 4.8 12.9 0.00 0.00 0.00 67 1005.4
20260504001045 5 314 4.8 14.5 0.00 0.00 0.00 67 1005.4
20260504000542 5 314 3.2 14.5 0.00 0.00 0.00 67 1005.4
20260504000055 5 314 4.8 14.5 0.00 0.00 0.00 66 1005.3
20260503235545 5 314 3.2 14.5 0.00 0.00 0.00 68 1005.2
20260503235048 5 314 4.8 12.9 0.00 0.00 0.00 67 1005.3
20260503234555 5 314 3.2 6.4 0.00 0.00 0.00 65 1005.2
20260503234046 5 314 3.2 8.0 0.00 0.00 0.00 63 1005.2
20260503233546 5 314 3.2 16.1 0.00 0.00 0.00 62 1005.2
20260503233057 5 314 4.8 17.7 0.00 0.00 0.00 66 1005.2
20260503232543 5 314 4.8 17.7 0.00 0.00 0.00 62 1005.2
20260503232045 5 314 3.2 11.3 0.00 0.00 0.00 66 1005.2
20260503231555 5 314 6.4 11.3 0.00 0.00 0.00 63 1005.2
20260503231044 5 314 6.4 16.1 0.00 0.00 0.00 63 1005.1
20260503230545 5 314 6.4 16.1 0.00 0.00 0.00 65 1004.9
20260503230053 5 314 4.8 14.5 0.00 0.00 0.00 66 1005.0
20260503225542 5 314 6.4 14.5 0.00 0.00 0.00 63 1005.1
20260503225047 5 314 6.4 12.9 0.00 0.00 0.00 62 1005.1
20260503224551 5 314 6.4 19.3 0.00 0.00 0.00 62 1004.9
20260503224044 5 314 8.0 19.3 0.00 0.00 0.00 65 1004.9
20260503223544 5 314 12.9 19.3 0.00 0.00 0.00 62 1004.7
20260503223058 5 314 3.2 8.0 0.00 0.00 0.00 59 1004.6
20260503222545 6 314 4.8 9.7 0.00 0.00 0.00 58 1004.6
20260503222047 6 314 4.8 11.3 0.00 0.00 0.00 59 1004.6
20260503221553 6 314 4.8 11.3 0.00 0.00 0.00 58 1004.7
20260503221050 6 314 4.8 11.3 0.00 0.00 0.00 56 1004.7
20260503220545 6 314 4.8 11.3 0.00 0.00 0.00 56 1004.7
20260503220100 6 314 3.2 11.3 0.00 0.00 0.00 57 1004.8
20260503215541 5 314 3.2 8.0 0.00 0.00 0.00 58 1004.7
20260503215044 6 314 3.2 8.0 0.00 0.00 0.00 58 1004.7
20260503214551 6 314 3.2 11.3 0.00 0.00 0.00 59 1004.7
20260503214045 6 314 4.8 11.3 0.00 0.00 0.00 58 1004.6
20260503213542 5 314 3.2 9.7 0.00 0.00 0.00 57 1004.7
20260503213049 5 314 4.8 9.7 0.00 0.00 0.00 56 1004.8
20260503212542 5 314 3.2 9.7 0.00 0.00 0.00 58 1004.8
20260503212046 5 314 1.6 11.3 0.00 0.00 0.00 58 1004.8
20260503211603 5 314 4.8 11.3 0.00 0.00 0.00 56 1004.7
20260503211049 5 314 4.8 9.7 0.00 0.00 0.00 56 1004.7
20260503210545 6 314 4.8 9.7 0.00 0.00 0.00 57 1004.7
20260503210051 6 314 1.6 8.0 0.00 0.00 0.00 56 1004.6
20260503205545 6 314 3.2 9.7 0.00 0.00 0.00 54 1004.7
20260503205045 6 314 3.2 9.7 0.00 0.00 0.00 55 1004.8
20260503204551 6 314 1.6 11.3 0.00 0.00 0.00 55 1004.8
20260503204045 6 314 3.2 11.3 0.00 0.00 0.00 54 1004.7
20260503203545 6 314 3.2 8.0 0.00 0.00 0.00 54 1004.8
20260503203055 6 314 3.2 8.0 0.00 0.00 0.00 57 1004.6
20260503202545 6 314 3.2 8.0 0.00 0.00 0.00 55 1004.8
20260503202042 6 314 4.8 8.0 0.00 0.00 0.00 53 1004.7
20260503201553 6 314 4.8 8.0 0.00 0.00 0.00 53 1004.8
20260503201043 6 314 3.2 9.7 0.00 0.00 0.00 55 1004.7
20260503200545 6 314 4.8 9.7 0.00 0.00 0.00 53 1004.7
20260503200053 6 314 3.2 9.7 0.00 0.00 0.00 54 1004.7
20260503195544 6 314 4.8 12.9 0.00 0.00 0.00 53 1004.7
20260503195041 6 314 3.2 12.9 0.00 0.00 0.00 52 1004.7
20260503194551 6 314 6.4 12.9 0.00 0.00 0.00 53 1004.6
20260503194044 6 314 4.8 14.5 0.00 0.00 0.00 54 1004.6
20260503193543 6 314 4.8 14.5 0.00 0.00 0.00 52 1004.6